sat.trackr.live / text

‹ back to catalog

STARLINK-34626

NORAD 65082 · 2025-167E

PAYLOAD ACTIVE UNKNOWN

§ Identity

Operator
Country
US
Launch date
2025-08-04
Launch site
AFETR
Launch vehicle
Mass (kg)
RCS (m²)

Purposes: comms

External: N2YO · Heavens-Above · Gunter

§ Orbital elements

Epoch: 2026-09-20T05:16:24.767904Z

Period
93.85 min
Inclination
53.1579°
Eccentricity
0.0001472
Mean motion
15.34414893 rev/d
Perigee alt
461.7 km
Apogee alt
463.7 km
Semi-major
6,840.8 km
B*
4.7480e-4
RAAN
195.3290°
Arg perigee
74.3668°
Mean anomaly
285.7497°
Rev number
6,337

§ Raw data

STARLINK-346261 65082U 25167E   26263.21973111  .00015707  00000+0  47480-3 0  99912 65082  53.1579 195.3290 0001472  74.3668 285.7497 15.34414893 63373

JSON: /api/v1/satellites/65082 · /tle

For live sub-satellite position, see the globe view (requires WebGL).

§ Visibility from observer

Set your observer location to see the next 7 days of passes ≥ 10°. The values pass through the URL so the page stays shareable.

No JS? Fill the form by hand. The geolocation button needs JavaScript.